Location: Newark
(48.6461°N, 4.3644°W)
Time: 15:21:52
(UTC+00:00)

Transit 4A - Pass Details

Date: 24 January 2020
Orbit: 872 x 973 km, 66.8° (Epoch: 26 February)

Event Time Altitude Azimuth Distance (km) Brightness Sun altitude
Rises 11:17:03 0° 302° (WNW) 3,500 10.5 20.2°
Reaches altitude 10° 11:21:12 10° 330° (NNW) 2,545 9.7 20.4°
Maximum altitude 11:23:48 13° 357° (N) 2,333 9.5 20.5°
Drops below altitude 10° 11:26:24 10° 24° (NNE) 2,534 9.8 20.6°
Sets 11:30:30 0° 52° (NE) 3,469 10.7 20.8°
